Location: Newark
(48.5667°N, 7.8167°E)
Time: 15:31:12
(UTC+00:00)

M-CUBED/EXP-1 PRIME - Visible Passes

Search period start: 13 June 2021 00:00
Search period end: 23 June 2021 00:00
Orbit: 428 x 659 km, 101.7° (Epoch: 12 June)

Date Brightness Start Highest point End Pass type
(mag) Time Alt. Az. Time Alt. Az. Time Alt. Az.
13 Jun ? 01:32:23 10° N 01:34:56 20° WNW 01:37:07 12° WSW visible
13 Jun ? 23:51:29 10° NE 23:54:25 26° ESE 23:55:04 25° ESE visible
14 Jun ? 01:25:45 10° N 01:28:33 25° WNW 01:30:38 15° WSW visible
14 Jun ? 23:45:13 10° NE 23:47:57 21° ESE 23:48:35 20° ESE visible
15 Jun ? 01:19:09 10° N 01:22:11 30° WNW 01:24:09 18° WSW visible
15 Jun ? 23:39:02 10° NE 23:41:28 18° E 23:42:06 17° ESE visible
16 Jun ? 01:12:35 10° N 01:15:46 37° WNW 01:17:40 21° WSW visible
16 Jun ? 23:32:57 10° ENE 23:34:58 15° E 23:35:36 14° ESE visible
17 Jun ? 01:06:02 10° N 01:09:22 47° WNW 01:11:10 24° SW visible
17 Jun ? 23:27:03 10° ENE 23:28:29 12° E 23:29:06 12° ESE visible
18 Jun ? 00:59:31 10° NNE 01:02:56 60° WNW 01:04:40 28° SW visible
19 Jun ? 00:53:00 10° NNE 00:56:30 76° WNW 00:58:10 31° SSW visible
20 Jun ? 00:46:32 10° NNE 00:50:04 86° ESE 00:51:40 33° SSW visible
20 Jun ? 02:22:55 10° NW 02:23:47 11° NW 02:24:39 10° WNW visible
21 Jun ? 00:40:04 10° NNE 00:43:37 68° ESE 00:45:09 33° S visible
21 Jun ? 02:15:43 10° NNW 02:17:25 13° NW 02:19:09 10° W visible
22 Jun ? 00:33:37 10° NNE 00:37:09 54° ESE 00:38:38 32° S visible
22 Jun ? 02:08:49 10° NNW 02:11:02 16° WNW 02:13:20 10° W visible
